TimeCST,TemperatureF,Dew PointF,Humidity,Sea Level PressureIn,VisibilityMPH,Wind Direction,Wind SpeedMPH,Gust SpeedMPH,PrecipitationIn,Events,Conditions,WindDirDegrees,DateUTC
12:15 AM,-2.2,-7.6,78,30.43,-9999.0,Calm,Calm,-,N/A,,Clear,0,2014-01-09 06:15:00
12:35 AM,1.4,-7.6,66,30.43,-9999.0,ENE,3.5,-,N/A,,Clear,70,2014-01-09 06:35:00
12:55 AM,-0.4,-7.6,72,30.43,-9999.0,Calm,Calm,-,N/A,,Clear,0,2014-01-09 06:55:00
1:15 AM,-0.4,-7.6,72,30.42,-9999.0,ENE,4.6,-,N/A,,Clear,70,2014-01-09 07:15:00
1:35 AM,-0.4,-7.6,72,30.42,-9999.0,ENE,4.6,-,N/A,,Clear,60,2014-01-09 07:35:00
1:55 AM,1.4,-7.6,66,30.43,-9999.0,Calm,Calm,-,N/A,,Clear,0,2014-01-09 07:55:00
2:15 AM,-0.4,-7.6,72,30.44,-9999.0,ESE,4.6,-,N/A,,Clear,110,2014-01-09 08:15:00
2:35 AM,-0.4,-7.6,72,30.43,-9999.0,ESE,3.5,-,N/A,,Clear,110,2014-01-09 08:35:00
2:55 AM,-0.4,-7.6,72,30.43,-9999.0,ESE,5.8,-,N/A,,Clear,120,2014-01-09 08:55:00
3:15 AM,-0.4,-9.4,66,30.42,-9999.0,ESE,5.8,-,N/A,,Clear,120,2014-01-09 09:15:00
3:35 AM,-2.2,-9.4,71,30.42,-9999.0,ESE,6.9,-,N/A,,Clear,120,2014-01-09 09:35:00
3:55 AM,-2.2,-9.4,71,30.41,-9999.0,ESE,5.8,-,N/A,,Clear,120,2014-01-09 09:55:00
4:15 AM,-0.4,-7.6,72,30.40,-9999.0,ESE,6.9,-,N/A,,Clear,120,2014-01-09 10:15:00
4:35 AM,-0.4,-7.6,72,30.40,-9999.0,ESE,5.8,-,N/A,,Clear,110,2014-01-09 10:35:00
4:55 AM,-0.4,-7.6,72,30.39,-9999.0,ESE,5.8,-,N/A,,Clear,120,2014-01-09 10:55:00
5:15 AM,-0.4,-7.6,72,30.39,-9999.0,ESE,5.8,-,N/A,,Clear,110,2014-01-09 11:15:00
5:35 AM,-0.4,-7.6,72,30.38,-9999.0,ESE,5.8,-,N/A,,Clear,120,2014-01-09 11:35:00
5:55 AM,-0.4,-7.6,72,30.38,-9999.0,ESE,5.8,-,N/A,,Clear,120,2014-01-09 11:55:00
6:15 AM,-0.4,-7.6,72,30.38,-9999.0,SE,6.9,-,N/A,,Clear,130,2014-01-09 12:15:00
6:35 AM,-2.2,-7.6,78,30.38,-9999.0,SE,4.6,-,N/A,,Clear,130,2014-01-09 12:35:00
6:55 AM,-2.2,-7.6,78,30.37,-9999.0,SE,5.8,-,N/A,,Clear,130,2014-01-09 12:55:00
7:15 AM,-0.4,-7.6,72,30.36,-9999.0,SE,6.9,-,N/A,,Clear,130,2014-01-09 13:15:00
7:35 AM,-2.2,-7.6,78,30.36,-9999.0,ESE,8.1,-,N/A,,Clear,120,2014-01-09 13:35:00
7:55 AM,-0.4,-7.6,72,30.35,-9999.0,SE,9.2,-,N/A,,Clear,130,2014-01-09 13:55:00
8:15 AM,-0.4,-7.6,72,30.35,-9999.0,SE,9.2,-,N/A,,Clear,130,2014-01-09 14:15:00
8:35 AM,1.4,-5.8,72,30.35,-9999.0,SE,9.2,-,N/A,,Clear,130,2014-01-09 14:35:00
8:55 AM,3.2,-5.8,66,30.35,-9999.0,SE,8.1,-,N/A,,Clear,130,2014-01-09 14:55:00
9:15 AM,5.0,-5.8,61,30.35,-9999.0,SE,8.1,-,N/A,,Clear,130,2014-01-09 15:15:00
9:35 AM,5.0,-4.0,66,30.34,-9999.0,SE,9.2,-,N/A,,Clear,130,2014-01-09 15:35:00
9:55 AM,6.8,-4.0,61,30.34,-9999.0,SE,10.4,-,N/A,,Clear,130,2014-01-09 15:55:00
10:15 AM,8.6,-4.0,57,30.33,-9999.0,SE,9.2,-,N/A,,Mostly Cloudy,130,2014-01-09 16:15:00
10:35 AM,8.6,-2.2,62,30.32,-9999.0,SE,8.1,-,N/A,,Overcast,130,2014-01-09 16:35:00
10:55 AM,10.4,-0.4,62,30.32,-9999.0,SE,9.2,-,N/A,,Overcast,130,2014-01-09 16:55:00
11:15 AM,12.2,1.4,62,30.30,-9999.0,SE,9.2,-,N/A,,Overcast,130,2014-01-09 17:15:00
11:35 AM,14.0,3.2,62,30.28,-9999.0,SE,9.2,-,N/A,,Overcast,130,2014-01-09 17:35:00
11:55 AM,14.0,5.0,67,30.26,-9999.0,SE,11.5,-,N/A,,Overcast,140,2014-01-09 17:55:00
12:15 PM,15.8,5.0,62,30.26,-9999.0,SE,10.4,-,N/A,,Overcast,130,2014-01-09 18:15:00
12:35 PM,17.6,5.0,58,30.25,-9999.0,SSE,11.5,-,N/A,,Overcast,150,2014-01-09 18:35:00
12:55 PM,17.6,6.8,63,30.23,-9999.0,SSE,10.4,-,N/A,,Overcast,150,2014-01-09 18:55:00
1:15 PM,19.4,8.6,63,30.22,-9999.0,SSE,10.4,-,N/A,,Scattered Clouds,150,2014-01-09 19:15:00
1:35 PM,17.6,8.6,68,30.21,-9999.0,SE,9.2,-,N/A,,Mostly Cloudy,140,2014-01-09 19:35:00
1:55 PM,17.6,8.6,68,30.21,-9999.0,SE,8.1,-,N/A,,Overcast,140,2014-01-09 19:55:00
2:35 PM,19.4,10.4,68,30.19,-9999.0,ESE,6.9,-,N/A,,Overcast,120,2014-01-09 20:35:00
2:55 PM,19.4,10.4,68,30.18,-9999.0,ESE,9.2,-,N/A,,Overcast,120,2014-01-09 20:55:00
3:15 PM,19.4,10.4,68,30.18,-9999.0,SE,9.2,-,N/A,,Overcast,130,2014-01-09 21:15:00
3:35 PM,19.4,10.4,68,30.17,-9999.0,SE,10.4,-,N/A,,Overcast,130,2014-01-09 21:35:00
3:55 PM,19.4,12.2,74,30.17,-9999.0,SE,9.2,-,N/A,,Overcast,130,2014-01-09 21:55:00
4:15 PM,19.4,12.2,74,30.16,-9999.0,SE,9.2,-,N/A,,Overcast,140,2014-01-09 22:15:00
5:15 PM,19.4,14.0,80,30.15,-9999.0,ESE,8.1,-,N/A,,Overcast,120,2014-01-09 23:15:00
5:35 PM,19.4,14.0,80,30.14,-9999.0,SE,8.1,-,N/A,,Overcast,130,2014-01-09 23:35:00
5:55 PM,19.4,14.0,80,30.14,-9999.0,SE,8.1,-,N/A,,Overcast,140,2014-01-09 23:55:00
6:15 PM,19.4,15.8,86,30.13,-9999.0,SE,8.1,-,N/A,,Overcast,130,2014-01-10 00:15:00
6:35 PM,19.4,15.8,86,30.13,-9999.0,SE,6.9,-,N/A,,Overcast,130,2014-01-10 00:35:00
6:55 PM,21.2,17.6,86,30.12,-9999.0,SE,8.1,-,N/A,,Overcast,140,2014-01-10 00:55:00
7:15 PM,21.2,17.6,86,30.12,-9999.0,SE,8.1,-,N/A,,Overcast,140,2014-01-10 01:15:00
7:35 PM,21.2,17.6,86,30.12,-9999.0,SE,9.2,-,N/A,,Overcast,140,2014-01-10 01:35:00
7:55 PM,21.2,17.6,86,30.12,-9999.0,SSE,10.4,-,N/A,,Overcast,150,2014-01-10 01:55:00
8:15 PM,21.2,17.6,86,30.12,-9999.0,SSE,8.1,-,N/A,,Overcast,150,2014-01-10 02:15:00
8:35 PM,21.2,19.4,93,30.12,-9999.0,SSE,9.2,-,N/A,,Overcast,150,2014-01-10 02:35:00
8:55 PM,21.2,19.4,93,30.11,-9999.0,SSE,9.2,-,N/A,,Overcast,150,2014-01-10 02:55:00
9:15 PM,21.2,19.4,93,30.10,-9999.0,SSE,10.4,-,N/A,,Overcast,150,2014-01-10 03:15:00
9:35 PM,21.2,19.4,93,30.09,-9999.0,SSE,9.2,-,N/A,,Overcast,150,2014-01-10 03:35:00
9:55 PM,23.0,19.4,86,30.09,-9999.0,SSE,10.4,-,N/A,,Overcast,150,2014-01-10 03:55:00
10:15 PM,23.0,19.4,86,30.08,-9999.0,SSE,10.4,-,N/A,,Overcast,150,2014-01-10 04:15:00
10:35 PM,23.0,21.2,93,30.08,-9999.0,SSE,8.1,-,N/A,,Overcast,160,2014-01-10 04:35:00
10:55 PM,23.0,21.2,93,30.07,-9999.0,SSE,8.1,-,N/A,,Overcast,150,2014-01-10 04:55:00
11:15 PM,23.0,21.2,93,30.06,-9999.0,SSE,8.1,-,N/A,,Overcast,150,2014-01-10 05:15:00
11:35 PM,23.0,21.2,93,30.05,-9999.0,SSE,8.1,-,N/A,,Overcast,150,2014-01-10 05:35:00
11:55 PM,23.0,21.2,93,30.04,-9999.0,SSE,9.2,-,N/A,,Overcast,160,2014-01-10 05:55:00